Theta_e
307 307 308 308 309 311 311 311 312 316 316 314 317 313 317 316 314 315 316 318 318 318 317 317 316 315 315 317 318 318 319 318
306 306 306 307 308 309 308 309 311 314 313 313 314 313 313 312 313 313 314 313 316 315 315 314 314 313 314 315 317 317 317 313
304 304 305 305 305 306 306 307 307 308 308 310 311 313 313 310 310 311 311 313 314 314 312 311 311 311 311 312 312 312 312 308
301 301 302 302 302 302 302 304 304 306 303 305 308 309 308 310 311 310 313 312 311 311 309 309 309 309 306 306 309 311 309 308
298 299 299 299 299 301 298 298 301 302 301 302 303 304 306 307 307 309 308 307 308 306 307 308 308 309 303 303 308 310 309 308
297 298 298 299 299 299 299 299 299 299 299 299 302 304 303 304 304 303 303 305 305 305 306 308 307 305 302 302 305 308 307 307
297 297 296 296 297 297 296 296 296 297 297 298 299 301 300 301 301 303 304 303 303 305 306 305 303 302 300 300 303 304 302 300
295 296 295 294 294 294 293 293 294 294 296 297 299 299 300 300 300 300 301 303 303 302 300 301 300 298 297 297 300 300 298 299
295 293 292 292 293 292 291 292 292 294 296 297 298 298 299 300 300 300 301 300 298 297 297 297 297 298 297 296 297 297 296 296
292 291 290 292 293 293 293 293 295 295 295 296 296 298 299 300 300 300 299 297 296 295 295 295 296 297 296 295 295 296 298 298
292 291 291 293 294 296 294 295 296 296 295 296 297 298 299 300 299 297 296 296 295 294 294 294 294 295 296 295 295 295 297 299
291 291 291 292 295 297 296 297 298 297 296 296 298 298 298 298 298 297 296 295 294 294 294 293 293 294 296 297 297 298 297 300
292 292 292 293 295 295 297 298 298 296 295 295 294 294 293 293 293 295 295 295 295 293 294 295 293 294 296 294 297 301 303 300
292 293 293 294 295 295 296 297 297 295 294 294 294 294 293 293 292 291 291 292 293 293 294 296 296 293 292 292 292 292 292 295
293 293 294 295 295 295 296 297 297 295 293 294 295 295 294 293 293 292 291 292 292 291 290 290 291 290 291 291 291 291 293 295
295 295 294 295 295 295 297 298 297 297 297 296 298 297 296 296 295 297 298 296 294 294 292 293 291 291 292 292 292 294 296 296
295 295 295 295 295 295 298 298 298 298 299 300 302 302 302 300 299 297 296 295 294 294 295 294 294 291 291 291 291 298 296 296
293 293 295 295 295 297 298 297 297 298 300 296 299 300 299 299 298 297 296 297 297 297 297 297 299 297 296 297 297 297 296 296
296 296 297 297 296 297 299 299 298 298 301 302 295 302 301 300 300 298 298 297 296 296 296 294 286 297 297 297 297 297 297 297
295 296 297 297 299 299 299 299 299 299 301 302 302 300 300 299 299 298 298 297 296 296 297 295 289 298 297 297 297 297 297 297
Wind_Speed
17 17 17 18 18 17 16 16 19 9 9 4 5 5 6 5 6 6 8 9 9 7 9 6 9 11 13 10 10 10 9 4
18 17 18 17 15 16 17 18 15 14 11 12 10 7 4 3 8 9 8 9 9 7 7 5 7 10 11 11 8 8 9 4
21 19 18 18 19 19 17 15 16 16 16 13 11 10 7 8 6 10 9 4 8 7 9 8 9 9 8 7 7 8 3 6
21 21 22 20 20 18 18 18 17 16 14 15 15 11 11 9 8 5 6 5 6 7 10 11 9 6 5 8 9 4 5 5
24 22 20 19 18 17 16 16 14 15 15 13 16 13 13 10 7 7 7 6 7 9 11 10 7 5 6 7 4 3 4 3
20 17 18 17 17 17 17 14 14 14 13 14 13 11 8 8 7 7 6 7 9 7 8 5 1 1 4 4 4 4 4 3
16 15 17 18 19 17 16 15 14 14 13 11 10 10 8 7 8 6 3 5 5 5 2 2 3 2 3 5 6 6 8 9
17 18 17 16 16 15 14 14 12 12 13 11 8 7 6 6 5 5 2 4 3 4 5 5 8 5 9 11 8 6 8 7
18 16 14 15 15 14 13 12 12 10 9 8 5 5 5 4 3 3 3 3 4 5 7 7 9 10 12 18 15 10 8 9
16 14 14 15 13 12 11 10 9 6 5 4 2 3 2 5 4 2 5 5 6 6 8 8 8 9 14 16 14 13 8 6
14 13 14 12 12 8 9 9 8 4 3 2 2 1 1 4 5 6 5 6 6 6 6 7 7 7 8 15 10 7 2 6
12 13 13 12 12 10 7 8 6 5 6 5 4 4 8 9 6 6 6 6 6 6 7 9 9 6 5 4 2 2 4 4
11 11 11 12 11 11 11 9 7 9 9 9 10 10 10 10 10 8 8 8 9 9 8 8 9 6 2 5 3 2 1 2
10 10 10 11 10 11 11 10 10 10 10 9 9 8 9 9 9 10 18 16 15 10 6 7 2 1 6 1 11 11 11 6
10 10 9 10 10 11 10 10 10 11 11 10 10 11 8 9 10 10 10 10 15 13 11 10 10 5 10 11 12 12 6 6
9 8 9 9 10 11 9 9 11 10 7 7 5 9 9 9 8 8 8 9 8 6 7 5 5 6 7 9 10 6 8 6
7 8 9 9 9 10 8 7 8 7 4 2 5 7 7 9 10 10 9 9 8 7 5 3 1 3 2 4 1 6 7 7
7 7 8 8 9 6 6 6 6 5 4 5 7 9 8 8 8 8 8 8 7 7 5 5 3 6 8 7 8 8 9 8
6 7 7 8 8 6 6 3 1 2 5 4 6 8 8 8 9 10 10 9 9 8 8 5 4 7 8 9 9 9 9 9
7 8 8 6 5 4 3 3 1 0 1 2 7 8 8 8 8 8 8 8 8 8 7 7 9 9 9 9 10 10 10 11
Wind_Direction
352 347 340 336 334 338 339 341 334 332 333 349 339 347 352 316 293 296 308 309 296 287 275 295 303 320 314 316 314 313 314 358
338 338 331 326 326 324 330 324 316 321 320 329 308 286 288 284 315 299 300 290 307 330 300 313 309 298 300 309 316 329 321 70
329 328 329 328 319 316 312 309 314 314 311 300 296 290 268 266 261 264 273 283 297 316 313 312 311 309 305 326 311 296 170 102
327 317 309 311 314 311 310 306 298 296 301 302 291 284 288 288 259 255 289 317 297 291 287 289 290 286 338 311 291 236 119 132
319 316 312 310 306 307 296 293 305 299 288 293 289 281 288 298 300 306 298 304 301 293 287 283 278 301 327 300 281 110 130 153
313 313 309 310 310 303 299 302 305 296 284 275 288 301 306 312 304 289 285 291 281 277 271 283 39 327 286 246 133 100 95 57
314 322 318 310 308 309 303 296 297 299 286 293 293 291 292 285 283 296 352 349 323 296 12 89 126 76 77 91 88 75 82 70
325 322 316 307 309 305 298 293 289 282 285 287 292 277 304 289 308 320 1 315 3 61 75 77 93 74 55 54 55 76 81 79
324 321 313 309 310 304 293 286 275 271 274 286 313 337 324 331 30 345 329 76 79 76 80 69 70 72 69 67 62 68 74 62
326 321 318 314 308 301 299 293 286 250 255 253 262 280 342 290 244 222 98 96 89 83 84 77 67 68 72 65 69 75 85 106
325 323 322 328 329 334 346 357 31 96 120 153 128 193 50 25 86 92 88 84 92 90 88 82 76 65 64 72 73 66 31 116
330 332 341 349 351 4 9 13 35 60 73 69 53 51 68 62 61 63 74 80 81 79 79 81 82 75 83 134 191 208 123 116
334 341 349 1 5 16 19 24 41 54 58 60 63 65 65 63 52 60 67 54 75 85 80 91 101 108 264 281 264 205 58 101
342 353 358 4 18 27 31 40 51 60 63 61 63 70 69 66 68 67 53 72 85 99 117 128 122 19 269 305 51 32 18 34
356 0 7 11 29 40 37 45 57 69 75 77 83 85 95 91 86 87 85 66 69 62 63 51 39 27 21 19 11 353 331 6
1 14 21 30 41 43 42 59 77 77 90 109 111 95 101 105 107 107 90 85 86 79 42 65 48 37 13 349 345 24 58 52
3 28 35 46 52 50 45 48 62 59 50 50 110 127 117 95 89 93 97 95 95 95 90 59 14 342 45 83 153 68 63 60
23 36 43 49 64 51 38 53 47 34 29 37 95 107 116 116 114 115 121 124 115 99 94 105 124 72 66 64 59 60 57 53
41 38 37 62 63 54 43 93 73 47 54 35 336 77 73 74 65 66 68 70 72 71 66 58 60 89 77 64 58 51 52 50
62 52 46 47 41 60 42 315 1 178 120 34 102 98 103 101 99 101 102 102 101 98 86 62 59 68 65 62 56 52 49 42